Temp
72 72 73 73 75 74 74 74 75 75 75 75 74 74 76 74 74 73 72 71 70 70 69 67 67 67 67 68 68 68 66 66 65 63 63 63 62 62 64 63 64 68 70 69 66 61 62 59 60 65 67 67 65 68 70 70 72 70 69 68 71 70 70
73 73 74 75 74 74 73 73 72 73 73 74 74 74 73 73 73 72 72 69 68 67 68 68 67 67 67 67 66 65 64 65 65 65 64 63 63 61 63 62 63 67 68 68 69 68 63 61 60 61 61 65 66 66 69 70 71 71 70 69 71 71 70
72 72 73 72 72 73 72 71 67 69 72 72 73 73 73 74 69 69 70 70 69 68 67 67 67 67 65 66 66 65 66 66 66 65 64 64 64 64 64 64 64 66 66 66 66 65 65 64 60 62 63 61 59 64 68 68 68 71 72 71 70 69 68
70 71 70 70 72 72 72 71 69 69 70 71 72 71 69 69 69 70 68 70 70 68 67 66 66 66 66 66 67 66 66 66 65 65 64 64 64 64 65 66 67 67 65 64 64 65 64 61 60 61 63 64 64 63 66 69 69 71 73 71 71 69 69
69 69 69 69 70 71 70 70 71 71 70 70 70 68 68 68 67 67 68 68 70 69 68 67 67 67 66 66 66 65 66 67 66 65 64 63 64 63 64 66 67 68 67 66 68 67 66 64 64 62 61 65 63 67 69 68 71 71 72 72 73 72 71
67 67 69 69 69 69 70 70 69 69 69 68 69 68 69 68 67 68 67 65 68 69 69 68 67 67 67 66 66 67 66 67 66 65 64 64 64 64 64 65 65 66 67 68 69 67 67 67 65 62 64 61 60 64 68 67 66 71 73 72 73 74 74
66 66 67 68 68 69 69 68 69 68 68 68 68 68 68 68 67 68 68 68 69 70 70 70 69 68 68 67 67 66 67 67 67 66 66 66 65 66 66 64 64 64 66 65 67 68 66 66 65 64 62 62 64 61 67 67 69 67 69 72 74 75 73
66 66 67 68 68 68 68 69 69 69 68 69 68 69 69 67 67 66 66 66 68 69 70 70 69 69 68 67 66 66 66 67 66 66 65 66 65 66 65 65 64 64 65 64 66 67 68 67 66 65 61 60 60 61 63 66 68 68 68 71 75 74 75
66 66 67 67 67 67 67 67 67 68 69 68 69 68 68 68 67 65 65 66 67 68 68 68 68 67 67 66 65 64 65 67 66 66 65 66 66 66 66 67 66 64 66 66 68 67 68 67 66 67 65 63 61 59 62 63 63 66 73 71 74 76 75
66 66 66 66 66 67 67 67 66 67 69 69 69 70 69 68 68 67 66 65 66 66 67 67 66 66 68 67 65 64 64 65 66 65 65 65 66 66 66 67 67 65 64 68 69 68 67 66 67 66 66 65 64 62 60 60 62 63 70 73 69 72 76
66 66 66 66 66 66 66 67 67 66 67 68 69 69 69 69 68 68 66 66 66 66 66 66 65 64 65 65 65 65 65 65 65 64 65 66 66 66 66 67 67 66 67 65 68 68 67 66 66 67 66 66 67 62 64 62 62 66 66 70 73 71 73
67 66 66 66 65 65 65 65 66 66 67 67 68 68 68 69 68 68 67 66 65 65 65 65 65 65 65 64 64 63 64 64 64 63 64 65 65 66 66 66 66 66 68 68 68 68 68 67 66 67 67 66 65 66 66 64 60 65 70 66 70 73 73
67 67 66 65 65 65 65 65 65 65 66 67 68 69 69 68 68 68 66 66 65 65 65 65 66 66 65 64 64 64 65 65 64 64 64 64 65 66 66 66 65 66 67 68 68 67 67 68 67 63 63 63 63 67 66 64 62 61 63 65 68 70 73
65 66 66 65 65 65 65 65 65 66 67 66 67 68 68 68 68 67 67 66 65 65 65 65 65 64 64 64 65 66 66 65 65 64 64 64 65 65 65 66 66 67 68 66 67 66 66 67 66 63 64 64 66 69 68 65 63 61 62 64 66 70 73
66 66 65 65 64 65 65 65 65 66 65 66 67 67 68 67 67 67 66 65 66 66 65 65 64 64 64 63 64 66 66 66 64 64 63 63 65 64 64 66 67 67 67 66 66 66 67 67 67 65 64 64 67 68 68 68 63 62 61 63 63 66 65
65 64 64 64 64 64 64 64 66 64 64 65 66 66 66 66 66 66 66 66 65 65 64 63 65 65 64 63 64 65 65 65 63 63 63 63 64 65 64 65 67 67 66 66 65 66 66 66 66 66 65 66 65 66 69 69 64 63 63 63 67 67 68
64 63 62 63 62 63 63 63 64 64 64 64 64 65 66 66 65 64 63 64 65 65 65 64 65 66 65 64 63 64 65 64 64 64 64 63 63 64 64 63 65 67 66 65 65 65 65 66 65 64 64 64 63 64 67 67 68 65 63 63 67 70 69
62 62 62 62 62 63 63 63 63 63 63 62 62 63 63 64 63 63 62 62 62 63 65 65 65 65 65 64 64 64 65 64 64 64 65 64 64 64 64 64 65 66 66 65 65 64 66 65 66 65 63 63 63 64 67 68 68 68 65 64 66 70 69
61 61 62 62 62 62 62 62 62 62 62 61 61 61 61 61 62 61 61 61 61 62 63 65 65 65 64 64 64 64 64 64 63 64 64 64 64 64 64 64 64 64 65 65 65 65 65 66 65 65 66 65 65 63 66 67 67 68 67 66 67 66 68
61 61 61 61 61 62 62 61 61 60 61 60 59 59 59 59 59 59 59 59 59 60 60 62 63 56 55 59 62 64 64 63 63 63 64 64 65 64 64 64 64 65 64 64 65 65 65 65 64 63 64 65 66 64 64 65 64 63 61 61 61 65 64
61 61 61 61 61 61 61 61 60 60 60 58 58 58 57 57 57 58 57 57 57 58 58 60 51 50 49 50 51 57 62 63 63 64 64 65 64 64 64 64 64 64 65 65 65 66 65 64 64 63 64 63 63 64 62 62 61 60 61 60 60 58 59
61 61 61 61 60 60 60 60 59 59 59 58 58 57 57 56 56 55 56 55 55 55 56 56 49 47 46 46 48 51 56 61 63 63 63 63 64 64 64 63 64 64 64 66 62 62 64 63 65 63 64 63 62 62 62 61 61 60 60 59 58 59 58
61 60 60 60 60 60 59 59 58 58 58 58 58 57 56 56 55 54 53 54 54 53 53 54 49 45 44 45 46 48 51 56 62 62 61 61 62 63 64 64 64 64 61 60 57 54 53 55 60 65 66 63 63 63 63 62 61 59 59 58 58 58 58
60 59 59 59 59 59 59 58 58 57 57 57 56 56 55 55 54 53 53 52 52 52 52 52 44 42 41 42 44 45 48 51 58 61 62 62 62 62 62 63 63 63 61 59 58 53 51 50 53 54 56 60 62 65 64 63 62 59 59 59 58 58 58
59 59 59 59 59 59 58 58 57 56 56 56 56 56 54 54 53 53 52 51 50 50 50 48 41 41 41 40 41 43 45 51 55 59 62 62 61 60 61 63 63 64 64 63 62 58 53 49 48 48 49 51 53 55 56 64 63 60 61 60 58 58 60
58 58 58 59 59 58 57 56 55 55 55 56 56 54 53 53 53 52 51 50 49 49 50 45 41 41 40 39 39 41 44 49 54 56 60 61 61 61 60 60 61 62 64 62 63 62 61 55 48 46 47 48 47 46 45 45 52 64 63 61 60 60 61
58 58 58 58 58 58 56 55 55 55 55 55 54 53 53 53 53 51 50 49 48 48 49 44 41 40 39 39 39 39 44 49 53 57 58 61 62 61 61 60 60 61 62 61 62 63 61 58 56 54 55 58 58 50 45 43 44 51 59 64 63 61 63
58 58 58 58 57 57 56 55 55 54 54 54 53 52 52 52 52 51 50 49 48 47 47 42 41 40 39 39 39 40 46 51 54 56 58 60 62 62 61 62 61 60 61 61 61 61 62 59 58 58 59 60 59 60 60 60 61 62 64 65 63 64 62
58 58 58 58 57 56 55 55 54 55 54 54 53 53 53 53 51 50 49 49 47 46 47 42 41 40 39 39 39 44 47 50 53 55 57 60 61 61 61 61 61 60 61 61 56 51 55 61 60 60 59 58 56 54 50 44 40 40 47 60 63 62 64
57 58 58 57 57 55 55 55 55 55 54 53 52 52 51 51 52 51 49 48 47 46 46 44 41 40 40 39 40 44 48 50 52 54 56 59 60 61 61 62 61 60 61 61 54 48 48 53 61 60 60 57 57 55 52 50 42 41 41 41 42 43 41
58 57 57 57 56 56 56 55 55 55 54 53 52 52 52 51 51 51 49 48 47 46 46 45 42 40 40 40 41 45 48 50 53 54 56 55 52 51 51 48 56 61 60 60 50 45 46 53 61 60 58 57 55 53 53 54 53 48 43 43 43 43 44
58 57 57 56 57 56 56 55 55 55 55 55 53 53 52 51 51 50 49 48 48 46 46 45 42 40 40 40 41 44 44 45 48 48 49 50 50 48 48 48 44 45 55 56 47 45 45 53 60 59 58 57 54 53 52 53 53 54 55 56 56 56 54
57 57 57 56 57 56 57 56 54 54 54 55 54 53 53 52 50 49 49 48 47 46 45 45 44 40 40 40 40 42 43 42 43 44 44 45 45 45 45 45 44 40 38 39 43 43 44 48 59 58 58 56 54 52 54 55 55 56 55 56 57 56 56
57 57 57 57 57 57 56 55 55 54 53 54 53 52 51 51 50 49 48 48 47 46 46 45 44 41 40 40 40 40 41 41 42 42 42 41 42 42 42 42 43 40 39 39 39 42 46 46 49 59 59 56 55 53 53 55 54 53 56 54 53 53 52
58 57 57 57 56 56 56 56 55 54 54 53 51 51 51 50 50 49 49 48 47 46 46 45 43 42 40 40 40 40 40 40 41 42 41 40 40 40 40 41 41 40 39 39 40 40 41 44 47 55 53 46 46 47 55 55 56 56 56 55 54 53 53
57 58 57 57 56 55 56 55 54 54 53 52 51 50 50 49 49 48 48 48 47 46 46 45 43 42 41 40 40 40 39 40 39 42 41 40 39 39 40 41 41 41 39 39 39 40 41 43 45 46 44 44 45 46 51 56 55 56 55 55 53 52 52
58 57 57 57 56 55 55 54 54 53 53 52 51 50 50 49 49 47 46 46 47 47 46 45 44 42 42 40 40 40 39 39 39 41 42 41 40 40 40 40 40 38 39 40 40 40 39 41 42 41 42 43 45 47 52 50 49 49 47 47 48 48 49
MSLP
1015.33 1015.37 1015.09 1014.89 1014.57 1014.53 1014.65 1014.61 1014.53 1014.45 1014.37 1014.29 1014.37 1014.37 1014.29 1014.37 1014.37 1014.41 1014.53 1014.77 1014.93 1014.97 1015.05 1015.21 1015.33 1015.29 1015.33 1015.29 1015.41 1015.45 1015.65 1015.89 1016.17 1016.49 1016.53 1016.57 1017.13 1017.41 1017.53 1018.21 1017.89 1016.97 1016.57 1016.77 1017.17 1018.09 1018.57 1019.29 1019.17 1018.45 1018.21 1018.25 1018.33 1018.21 1018.09 1018.13 1018.01 1018.09 1018.29 1018.37 1018.49 1018.61 1018.77
1015.21 1015.13 1014.89 1014.73 1014.77 1014.65 1014.81 1014.77 1014.85 1014.61 1014.33 1014.21 1014.17 1014.25 1014.21 1014.33 1014.57 1014.53 1014.45 1014.69 1014.97 1015.05 1014.89 1014.85 1014.93 1015.01 1015.05 1015.13 1015.33 1015.41 1015.81 1015.89 1015.85 1015.97 1016.17 1016.37 1016.65 1017.33 1017.85 1018.21 1018.09 1017.13 1016.73 1016.77 1016.89 1017.29 1018.05 1018.57 1018.61 1018.93 1018.93 1018.41 1018.41 1018.41 1018.05 1017.85 1017.77 1017.85 1017.97 1018.17 1018.21 1018.37 1018.57
1015.37 1015.25 1015.17 1015.17 1015.05 1014.89 1015.01 1014.97 1015.25 1015.01 1014.65 1014.45 1014.25 1014.25 1014.25 1014.21 1014.61 1014.93 1014.81 1014.61 1014.77 1014.77 1014.81 1014.81 1014.81 1014.85 1014.97 1015.01 1015.01 1015.13 1015.17 1015.45 1015.53 1015.73 1015.89 1015.89 1016.01 1016.45 1017.13 1017.41 1017.49 1016.97 1017.01 1017.01 1017.01 1017.25 1017.49 1017.57 1018.25 1018.45 1018.37 1018.73 1019.09 1018.37 1017.89 1017.89 1017.81 1017.69 1017.77 1017.89 1018.05 1018.25 1018.41
1015.73 1015.57 1015.53 1015.45 1015.25 1015.09 1015.05 1014.97 1014.93 1014.85 1014.61 1014.57 1014.45 1014.41 1014.53 1014.53 1014.45 1014.41 1014.77 1014.65 1014.41 1014.57 1014.69 1014.69 1014.69 1014.69 1014.69 1014.73 1014.69 1014.85 1015.01 1015.05 1015.33 1015.57 1015.65 1015.65 1015.77 1015.97 1016.33 1016.61 1016.53 1016.61 1016.85 1017.13 1016.97 1016.97 1017.33 1017.85 1018.05 1018.09 1017.97 1017.97 1018.13 1018.37 1017.81 1017.57 1017.61 1017.61 1017.61 1017.61 1017.85 1018.13 1018.21
1015.97 1015.93 1015.93 1015.85 1015.61 1015.45 1015.33 1015.21 1014.89 1014.73 1014.65 1014.57 1014.45 1014.41 1014.53 1014.45 1014.29 1014.25 1014.53 1014.89 1014.53 1014.41 1014.49 1014.45 1014.49 1014.45 1014.45 1014.49 1014.53 1014.85 1014.85 1014.69 1014.97 1015.33 1015.41 1015.53 1015.69 1015.77 1015.93 1016.01 1016.05 1016.05 1016.17 1016.33 1016.21 1016.25 1016.69 1017.09 1017.29 1017.61 1017.93 1017.89 1018.21 1017.57 1017.25 1017.41 1017.29 1017.37 1017.41 1017.45 1017.49 1017.65 1017.89
1016.49 1016.29 1016.01 1015.85 1015.69 1015.69 1015.45 1015.25 1015.09 1015.01 1014.77 1014.65 1014.41 1014.41 1014.37 1014.45 1014.41 1014.25 1014.29 1014.61 1014.53 1014.25 1014.17 1014.25 1014.29 1014.29 1014.29 1014.29 1014.33 1014.45 1014.45 1014.61 1014.81 1014.97 1015.13 1015.17 1015.33 1015.53 1015.69 1015.77 1015.85 1015.93 1015.77 1015.65 1015.73 1015.97 1015.97 1016.21 1016.69 1017.45 1017.41 1017.89 1018.45 1017.61 1017.09 1017.29 1017.61 1017.17 1017.01 1017.13 1017.09 1017.09 1017.41
1016.81 1016.61 1016.41 1016.25 1015.97 1015.73 1015.57 1015.45 1015.33 1015.13 1014.93 1014.77 1014.53 1014.41 1014.33 1014.41 1014.45 1014.29 1014.01 1013.89 1013.93 1014.01 1013.93 1013.89 1013.93 1014.05 1014.05 1014.13 1014.25 1014.41 1014.41 1014.33 1014.49 1014.69 1014.77 1014.85 1015.01 1015.13 1015.29 1015.57 1015.61 1015.61 1015.57 1015.81 1016.01 1015.65 1015.85 1016.17 1016.61 1016.89 1017.21 1017.69 1017.65 1017.65 1017.05 1017.21 1017.01 1017.45 1017.21 1016.85 1016.73 1016.73 1017.01
1016.93 1016.73 1016.57 1016.37 1016.21 1016.09 1015.81 1015.53 1015.29 1015.09 1015.05 1014.77 1014.69 1014.41 1014.21 1014.25 1014.29 1014.37 1014.33 1014.09 1013.89 1013.85 1013.77 1013.69 1013.73 1013.81 1013.85 1013.93 1014.13 1014.25 1014.33 1014.29 1014.45 1014.61 1014.77 1014.73 1014.93 1015.01 1015.17 1015.13 1015.21 1015.37 1015.41 1016.13 1016.33 1015.61 1015.41 1015.65 1015.93 1016.33 1016.85 1017.73 1017.61 1017.77 1017.45 1017.01 1016.93 1016.93 1016.97 1016.69 1016.33 1016.53 1016.57
1016.97 1016.81 1016.65 1016.49 1016.37 1016.21 1016.05 1015.81 1015.53 1015.25 1015.01 1014.77 1014.57 1014.53 1014.33 1014.21 1014.25 1014.33 1014.29 1014.21 1013.93 1013.85 1013.81 1013.81 1013.85 1013.97 1013.93 1014.01 1014.09 1014.29 1014.21 1014.05 1014.29 1014.37 1014.49 1014.61 1014.73 1014.77 1014.85 1014.81 1015.01 1015.13 1015.13 1015.53 1015.53 1015.21 1015.17 1015.29 1015.57 1015.77 1016.21 1016.81 1017.29 1017.61 1017.05 1017.13 1017.09 1016.97 1016.13 1016.53 1016.29 1016.13 1016.33
1016.93 1016.89 1016.77 1016.65 1016.53 1016.37 1016.17 1015.97 1015.77 1015.45 1015.13 1014.85 1014.61 1014.41 1014.33 1014.29 1014.21 1014.13 1014.13 1014.09 1013.97 1013.93 1013.97 1013.97 1014.05 1014.05 1013.89 1013.89 1014.01 1014.01 1014.05 1014.01 1014.05 1014.13 1014.33 1014.53 1014.49 1014.53 1014.61 1014.65 1014.73 1014.97 1015.17 1014.97 1014.81 1014.81 1014.89 1015.01 1015.13 1015.37 1015.65 1016.09 1016.33 1016.97 1017.21 1017.21 1017.01 1017.01 1016.29 1015.93 1016.57 1016.29 1016.01
1016.85 1016.93 1016.93 1016.85 1016.73 1016.57 1016.37 1016.21 1015.97 1015.73 1015.53 1015.21 1014.81 1014.49 1014.37 1014.33 1014.25 1014.13 1014.05 1013.97 1013.81 1013.73 1013.73 1013.85 1014.21 1014.49 1014.25 1014.01 1014.01 1013.93 1013.81 1013.81 1013.93 1014.09 1014.21 1014.17 1014.25 1014.29 1014.41 1014.53 1014.53 1014.69 1014.77 1015.17 1014.65 1014.45 1014.61 1014.77 1015.01 1015.13 1015.29 1015.49 1015.89 1016.61 1016.29 1016.73 1016.65 1016.05 1016.21 1015.85 1015.77 1016.17 1015.97
1016.93 1016.97 1017.01 1016.93 1016.85 1016.77 1016.65 1016.49 1016.29 1015.97 1015.61 1015.25 1014.93 1014.65 1014.49 1014.33 1014.25 1014.21 1014.09 1013.93 1013.65 1013.41 1013.37 1013.61 1013.69 1013.81 1014.13 1014.17 1013.97 1013.97 1013.89 1013.89 1013.93 1014.09 1014.05 1014.05 1013.97 1014.01 1014.09 1014.25 1014.21 1014.29 1014.17 1014.29 1014.29 1014.25 1014.29 1014.45 1014.73 1014.89 1015.09 1015.21 1015.65 1015.73 1015.49 1015.69 1016.25 1015.57 1015.13 1016.13 1015.61 1015.29 1015.77
1017.21 1017.13 1017.05 1017.01 1017.05 1016.97 1016.81 1016.61 1016.37 1016.09 1015.73 1015.33 1015.01 1014.69 1014.49 1014.29 1014.21 1014.17 1014.05 1014.05 1013.89 1013.61 1013.69 1013.73 1013.61 1013.61 1013.69 1013.81 1013.81 1013.85 1013.65 1013.61 1013.61 1013.61 1013.65 1013.65 1013.77 1013.77 1013.77 1013.97 1013.97 1013.93 1013.85 1013.89 1013.93 1013.93 1013.97 1014.05 1014.37 1014.69 1014.65 1014.97 1015.61 1015.61 1015.21 1015.49 1015.65 1015.97 1015.29 1015.33 1015.45 1015.49 1015.49
1017.53 1017.37 1017.21 1017.17 1017.21 1017.05 1016.81 1016.65 1016.49 1016.17 1015.81 1015.53 1015.21 1014.93 1014.61 1014.29 1014.17 1014.17 1014.09 1014.01 1014.01 1013.77 1013.69 1013.65 1013.61 1013.61 1013.73 1013.65 1013.29 1013.13 1013.13 1013.29 1013.41 1013.45 1013.45 1013.49 1013.49 1013.57 1013.61 1013.65 1013.69 1013.57 1013.53 1013.69 1013.69 1013.73 1013.81 1013.97 1014.21 1014.33 1014.37 1014.81 1015.05 1014.89 1014.77 1015.21 1015.61 1015.85 1015.61 1015.25 1015.29 1015.45 1015.41
1017.73 1017.57 1017.57 1017.41 1017.37 1017.17 1016.93 1016.69 1016.53 1016.33 1016.17 1015.85 1015.53 1015.21 1014.89 1014.57 1014.25 1014.05 1014.01 1013.93 1013.77 1013.73 1013.77 1013.77 1013.77 1013.61 1013.53 1013.49 1013.29 1012.81 1012.69 1012.77 1013.09 1013.17 1013.25 1013.37 1013.29 1013.33 1013.49 1013.53 1013.41 1013.29 1013.33 1013.49 1013.53 1013.61 1013.65 1013.85 1014.01 1014.33 1014.49 1014.61 1014.69 1014.57 1014.25 1014.73 1015.25 1015.65 1016.17 1015.49 1015.53 1015.33 1016.05
1017.93 1017.93 1017.89 1017.73 1017.61 1017.41 1017.21 1016.97 1016.69 1016.53 1016.33 1016.09 1015.77 1015.57 1015.25 1014.93 1014.61 1014.41 1014.33 1013.97 1013.69 1013.57 1013.61 1013.77 1013.45 1013.21 1013.21 1013.37 1013.25 1012.85 1012.53 1012.37 1012.69 1013.09 1013.25 1013.29 1013.21 1013.17 1013.33 1013.41 1013.13 1013.05 1013.21 1013.33 1013.29 1013.29 1013.41 1013.61 1013.73 1014.01 1014.09 1014.21 1014.53 1014.65 1014.29 1014.17 1014.77 1015.33 1015.57 1015.57 1015.17 1015.49 1015.65
1018.25 1018.21 1018.21 1017.97 1017.89 1017.65 1017.45 1017.21 1016.89 1016.77 1016.61 1016.45 1016.21 1015.89 1015.49 1015.21 1014.97 1014.85 1014.73 1014.45 1014.05 1013.69 1013.49 1013.29 1013.13 1013.05 1012.89 1012.81 1012.89 1012.65 1012.29 1012.05 1012.01 1012.25 1012.57 1012.85 1013.09 1013.05 1013.01 1013.13 1013.09 1012.89 1012.93 1013.09 1013.05 1013.09 1013.21 1013.45 1013.61 1013.77 1013.93 1014.13 1014.53 1015.01 1014.57 1013.93 1014.17 1014.65 1015.01 1015.45 1015.05 1014.93 1014.89
1018.69 1018.53 1018.49 1018.29 1018.09 1017.85 1017.57 1017.41 1017.25 1017.01 1016.89 1016.77 1016.57 1016.29 1015.97 1015.65 1015.33 1015.09 1014.93 1014.77 1014.53 1014.09 1013.53 1013.25 1013.05 1012.85 1012.69 1012.57 1012.53 1012.29 1012.05 1011.85 1011.77 1011.77 1011.97 1012.17 1012.33 1012.49 1012.57 1012.77 1012.77 1012.77 1012.81 1012.93 1012.81 1012.89 1012.93 1013.21 1013.29 1013.37 1013.73 1013.93 1014.13 1014.45 1014.05 1013.57 1013.93 1014.17 1014.69 1015.01 1014.89 1014.37 1014.45
1019.01 1018.85 1018.69 1018.45 1018.33 1018.17 1017.85 1017.69 1017.61 1017.41 1017.29 1017.17 1016.97 1016.81 1016.57 1016.21 1015.85 1015.57 1015.29 1015.05 1014.77 1014.41 1013.93 1013.41 1013.01 1012.77 1012.73 1012.65 1012.29 1012.17 1012.01 1011.81 1011.69 1011.57 1011.57 1011.65 1011.77 1012.09 1012.25 1012.33 1012.37 1012.41 1012.53 1012.49 1012.49 1012.57 1012.69 1012.89 1013.13 1013.25 1013.29 1013.49 1013.81 1014.65 1014.09 1013.49 1013.61 1013.89 1014.13 1014.41 1014.33 1014.37 1014.21
1019.29 1019.13 1018.97 1018.77 1018.61 1018.37 1018.13 1018.05 1017.93 1017.85 1017.69 1017.61 1017.45 1017.21 1017.01 1016.77 1016.45 1016.13 1015.81 1015.53 1015.21 1014.89 1014.49 1013.81 1013.69 1014.37 1014.29 1013.65 1012.85 1012.21 1011.89 1011.73 1011.73 1011.57 1011.41 1011.49 1011.53 1011.57 1011.85 1012.09 1012.17 1012.09 1012.17 1012.13 1012.13 1012.33 1012.49 1012.61 1012.81 1013.01 1013.09 1013.25 1013.53 1014.05 1013.69 1013.57 1013.81 1014.33 1015.05 1015.33 1015.37 1014.57 1014.57
1019.49 1019.33 1019.25 1019.05 1018.89 1018.69 1018.53 1018.37 1018.29 1018.25 1018.05 1017.93 1017.85 1017.65 1017.45 1017.21 1016.93 1016.61 1016.29 1016.05 1015.77 1015.37 1014.93 1014.45 1015.25 1015.41 1015.45 1015.13 1014.49 1013.21 1011.97 1011.53 1011.33 1011.25 1011.09 1010.97 1011.01 1011.05 1011.25 1011.57 1011.89 1012.13 1012.01 1011.65 1011.69 1011.89 1012.29 1012.29 1012.33 1012.65 1013.05 1013.13 1013.09 1013.17 1013.49 1013.73 1014.05 1014.29 1014.69 1015.01 1015.29 1015.53 1015.85
1019.73 1019.61 1019.45 1019.21 1019.09 1018.97 1018.89 1018.77 1018.65 1018.53 1018.37 1018.25 1018.13 1018.05 1017.89 1017.69 1017.37 1017.05 1016.69 1016.37 1016.13 1015.85 1015.49 1015.21 1015.97 1016.33 1016.17 1015.57 1014.97 1014.13 1012.97 1011.69 1011.17 1011.01 1010.97 1011.13 1011.09 1011.05 1011.05 1011.13 1011.29 1011.53 1011.65 1011.37 1011.45 1011.73 1011.93 1011.77 1011.97 1012.25 1012.53 1012.65 1012.73 1012.89 1013.13 1013.45 1013.93 1014.21 1014.41 1014.73 1014.97 1014.85 1014.97
1020.09 1019.93 1019.69 1019.49 1019.33 1019.25 1019.17 1019.05 1018.97 1018.85 1018.69 1018.57 1018.49 1018.37 1018.25 1018.05 1017.81 1017.53 1017.17 1016.81 1016.49 1016.25 1016.13 1015.89 1016.29 1016.41 1016.49 1016.25 1015.45 1014.53 1013.57 1012.41 1011.37 1010.89 1010.93 1011.01 1010.97 1010.89 1010.85 1010.81 1010.81 1010.93 1011.13 1011.49 1011.25 1011.33 1011.61 1011.61 1011.53 1011.61 1011.85 1012.17 1012.29 1012.61 1012.69 1013.09 1013.61 1014.17 1014.41 1014.73 1014.93 1014.93 1014.97
1020.41 1020.25 1020.09 1019.89 1019.73 1019.57 1019.49 1019.37 1019.33 1019.25 1019.09 1018.93 1018.81 1018.73 1018.65 1018.37 1018.13 1017.93 1017.73 1017.45 1017.09 1016.77 1016.53 1016.41 1016.77 1016.69 1016.41 1016.01 1015.61 1014.93 1014.05 1013.01 1011.89 1011.05 1010.77 1010.73 1010.65 1010.61 1010.69 1010.57 1010.53 1010.61 1011.01 1011.29 1011.17 1011.17 1011.33 1011.49 1011.41 1011.41 1011.45 1011.49 1011.61 1011.85 1012.33 1012.73 1013.21 1013.69 1014.09 1014.33 1014.41 1014.61 1014.57
1020.77 1020.61 1020.45 1020.29 1020.17 1020.05 1019.93 1019.85 1019.81 1019.69 1019.49 1019.21 1019.09 1019.05 1018.97 1018.81 1018.61 1018.41 1018.21 1018.01 1017.77 1017.41 1017.09 1017.05 1017.21 1016.81 1016.33 1015.89 1015.53 1015.09 1014.21 1013.13 1012.13 1011.13 1010.45 1010.37 1010.49 1010.57 1010.61 1010.37 1010.29 1010.25 1010.29 1010.65 1011.01 1011.09 1011.21 1011.25 1011.29 1011.41 1011.45 1011.45 1011.45 1011.49 1011.57 1011.81 1012.41 1013.33 1013.73 1013.89 1014.05 1014.17 1014.09
1021.09 1020.93 1020.73 1020.53 1020.37 1020.33 1020.33 1020.33 1020.25 1020.09 1019.85 1019.57 1019.45 1019.41 1019.33 1019.13 1018.93 1018.77 1018.73 1018.53 1018.25 1017.97 1017.57 1017.61 1017.57 1016.97 1016.37 1015.81 1015.25 1014.77 1013.97 1012.93 1012.09 1011.41 1010.69 1010.53 1010.41 1010.21 1010.17 1010.25 1010.49 1010.29 1010.05 1010.17 1010.73 1011.29 1011.29 1011.21 1011.49 1011.33 1011.25 1011.41 1011.53 1011.53 1011.69 1011.77 1011.81 1012.33 1012.69 1013.05 1013.41 1013.53 1013.53
1021.25 1021.09 1020.89 1020.69 1020.57 1020.49 1020.49 1020.53 1020.49 1020.41 1020.21 1019.89 1019.77 1019.69 1019.57 1019.33 1019.17 1019.13 1019.13 1019.05 1018.85 1018.53 1018.05 1018.09 1017.69 1017.05 1016.41 1015.69 1015.01 1014.45 1013.57 1012.57 1011.69 1011.01 1010.61 1010.29 1010.01 1009.85 1009.93 1010.13 1010.09 1010.09 1010.01 1010.13 1010.29 1010.69 1011.13 1011.09 1011.29 1011.73 1011.77 1011.57 1011.61 1011.85 1011.73 1011.65 1011.89 1011.97 1012.05 1012.21 1012.41 1012.85 1012.77
1021.37 1021.17 1020.93 1020.77 1020.77 1020.69 1020.73 1020.61 1020.53 1020.49 1020.45 1020.33 1020.17 1020.01 1019.85 1019.61 1019.45 1019.37 1019.37 1019.29 1019.13 1018.77 1018.49 1018.41 1017.81 1017.17 1016.41 1015.65 1014.73 1013.89 1012.89 1011.97 1011.33 1010.73 1010.21 1009.89 1009.65 1009.45 1009.57 1009.69 1009.81 1009.85 1009.89 1010.01 1010.05 1010.29 1010.65 1010.85 1011.13 1011.21 1011.53 1011.97 1012.17 1011.93 1012.01 1012.05 1011.93 1011.93 1011.97 1011.97 1012.09 1012.29 1012.73
1021.49 1021.25 1021.05 1020.89 1020.85 1020.89 1020.85 1020.77 1020.69 1020.61 1020.57 1020.49 1020.45 1020.37 1020.17 1019.93 1019.73 1019.65 1019.65 1019.49 1019.33 1019.09 1018.73 1018.49 1017.93 1017.25 1016.45 1015.53 1014.61 1013.53 1012.61 1011.85 1011.17 1010.61 1010.05 1009.61 1009.33 1009.17 1009.29 1009.49 1009.45 1009.45 1009.45 1009.53 1009.81 1009.97 1010.05 1010.29 1010.65 1010.81 1011.09 1011.41 1011.89 1012.37 1012.73 1013.25 1012.97 1012.69 1012.33 1012.01 1012.17 1012.73 1012.49
1021.69 1021.49 1021.29 1021.05 1020.93 1021.01 1021.01 1021.01 1020.89 1020.73 1020.65 1020.65 1020.65 1020.57 1020.49 1020.25 1020.01 1019.89 1019.85 1019.65 1019.53 1019.29 1018.93 1018.57 1018.17 1017.53 1016.69 1015.81 1014.57 1013.61 1012.73 1011.85 1011.21 1010.53 1010.09 1009.49 1009.13 1008.93 1008.85 1008.85 1008.93 1008.97 1009.01 1009.21 1009.41 1009.65 1009.85 1010.05 1010.37 1010.65 1010.89 1011.41 1011.69 1012.09 1012.57 1012.93 1012.85 1012.65 1012.45 1012.41 1012.61 1012.77 1013.01
1021.97 1021.77 1021.61 1021.45 1021.29 1021.17 1021.25 1021.29 1021.21 1021.01 1020.81 1020.73 1020.81 1020.77 1020.65 1020.45 1020.33 1020.21 1020.17 1020.05 1019.93 1019.73 1019.29 1018.89 1018.49 1017.89 1017.13 1016.25 1015.33 1014.17 1013.13 1012.21 1011.13 1010.45 1009.73 1009.77 1009.73 1009.73 1009.73 1009.41 1008.89 1008.69 1008.73 1008.73 1008.77 1009.17 1009.57 1009.89 1010.13 1010.37 1010.65 1011.13 1011.69 1012.05 1012.53 1012.65 1012.81 1013.05 1012.97 1013.01 1013.33 1013.45 1013.57
1022.17 1022.01 1021.89 1021.73 1021.53 1021.45 1021.41 1021.45 1021.45 1021.29 1021.09 1020.89 1020.93 1020.93 1020.85 1020.65 1020.61 1020.57 1020.61 1020.53 1020.29 1019.97 1019.61 1019.13 1018.77 1018.33 1017.65 1016.89 1016.01 1015.05 1014.25 1013.53 1012.53 1012.01 1011.69 1011.33 1011.17 1011.05 1010.73 1010.25 1009.69 1009.17 1008.69 1008.37 1008.45 1008.85 1009.41 1009.65 1009.73 1010.05 1010.33 1010.81 1011.61 1012.17 1012.45 1012.49 1012.57 1012.65 1012.77 1012.97 1013.25 1013.25 1013.61
1022.41 1022.29 1022.17 1022.01 1021.81 1021.73 1021.69 1021.57 1021.61 1021.57 1021.45 1021.25 1021.09 1021.09 1020.97 1020.85 1020.89 1020.89 1020.85 1020.73 1020.49 1020.21 1019.93 1019.53 1019.13 1018.85 1018.25 1017.57 1016.93 1016.13 1015.33 1014.73 1014.17 1013.57 1013.09 1012.81 1012.33 1012.05 1011.93 1011.49 1010.73 1009.73 1009.21 1009.29 1009.13 1009.09 1009.49 1009.25 1009.25 1009.85 1010.21 1010.69 1011.09 1011.89 1012.09 1012.13 1012.25 1012.37 1012.77 1013.01 1013.33 1013.49 1013.77
1022.57 1022.49 1022.37 1022.21 1022.13 1022.01 1021.97 1021.89 1021.73 1021.69 1021.65 1021.57 1021.45 1021.33 1021.29 1021.09 1021.09 1021.05 1021.01 1020.97 1020.85 1020.57 1020.29 1019.97 1019.57 1019.21 1018.69 1018.17 1017.65 1017.05 1016.41 1015.93 1015.45 1014.85 1014.37 1013.85 1013.53 1013.33 1012.93 1012.53 1012.17 1011.05 1009.49 1009.33 1009.45 1009.33 1009.29 1009.21 1009.41 1009.77 1010.01 1010.33 1010.45 1010.93 1011.37 1011.81 1012.21 1012.41 1012.93 1013.45 1013.77 1013.93 1014.13
1022.61 1022.61 1022.53 1022.37 1022.25 1022.21 1022.13 1022.09 1022.05 1021.85 1021.77 1021.73 1021.69 1021.57 1021.49 1021.33 1021.25 1021.21 1021.09 1021.09 1021.01 1020.85 1020.53 1020.25 1019.97 1019.41 1019.01 1018.69 1018.29 1017.81 1017.33 1016.93 1016.41 1015.65 1015.13 1014.81 1014.45 1014.13 1013.93 1013.57 1013.05 1012.61 1010.45 1009.81 1009.61 1009.73 1009.37 1009.21 1009.21 1009.77 1010.17 1010.45 1010.65 1010.85 1011.21 1011.69 1012.13 1012.57 1012.97 1013.41 1013.81 1014.05 1014.33
1022.65 1022.69 1022.65 1022.45 1022.29 1022.29 1022.25 1022.21 1022.17 1022.05 1021.85 1021.77 1021.73 1021.73 1021.69 1021.61 1021.41 1021.37 1021.25 1021.09 1021.05 1020.89 1020.65 1020.37 1020.17 1019.81 1019.37 1019.01 1018.65 1018.33 1018.05 1017.61 1017.01 1016.29 1016.01 1015.69 1015.53 1015.17 1014.69 1014.17 1013.85 1013.57 1011.57 1010.29 1010.53 1010.53 1010.25 1010.09 1010.33 1010.49 1010.49 1010.73 1010.89 1011.13 1011.33 1011.69 1012.05 1012.37 1012.89 1013.45 1013.89 1014.45 1014.77
1022.53 1022.61 1022.65 1022.53 1022.41 1022.29 1022.29 1022.37 1022.33 1022.21 1022.01 1021.89 1021.81 1021.73 1021.73 1021.65 1021.65 1021.65 1021.53 1021.33 1021.05 1020.93 1020.77 1020.65 1020.29 1020.09 1019.77 1019.33 1019.01 1018.65 1018.33 1018.01 1017.65 1017.25 1016.69 1016.41 1016.13 1015.77 1015.25 1014.77 1014.57 1014.01 1012.93 1011.21 1010.97 1011.45 1011.13 1011.05 1011.33 1011.61 1011.53 1011.29 1011.45 1011.69 1011.89 1012.21 1012.65 1013.25 1013.73 1014.25 1014.73 1015.13 1015.49
Wind_Speed
2 2 2 3 3 3 4 3 3 3 3 4 3 5 7 5 5 5 6 6 6 5 6 8 8 7 7 7 8 7 6 5 7 8 7 6 6 2 3 6 8 5 3 2 4 6 3 4 4 2 2 5 4 6 6 6 6 5 5 5 6 5 5
5 5 5 4 4 3 4 3 5 5 3 4 4 4 5 5 6 6 5 6 5 7 8 8 7 8 10 9 7 9 8 8 8 6 4 5 6 7 7 8 8 6 3 3 3 6 4 4 4 7 5 3 4 5 6 5 4 5 4 6 5 5 5
5 5 5 5 5 5 5 1 4 6 5 5 3 3 6 3 5 9 7 6 6 7 6 7 7 9 7 9 10 8 9 9 7 7 8 5 5 5 5 8 8 4 3 3 4 4 2 2 2 5 7 8 7 7 6 6 4 4 5 6 5 6 4
9 8 6 5 6 6 5 3 2 4 5 4 4 3 5 6 6 7 5 6 4 6 7 7 9 9 8 10 10 9 9 10 8 7 6 5 4 6 8 8 6 6 6 6 5 5 4 2 2 3 3 6 9 7 8 8 6 6 6 5 6 6 5
9 7 8 9 8 9 6 6 6 4 3 3 3 3 3 4 6 6 6 7 5 5 6 6 7 8 9 9 9 7 9 9 7 7 6 7 8 6 7 6 5 5 6 6 5 5 6 6 6 4 5 2 4 6 6 7 6 7 7 7 7 7 8
12 12 10 8 9 8 8 7 6 5 5 5 4 4 2 1 4 5 2 5 6 5 5 6 7 8 10 10 10 11 10 9 8 9 8 9 9 8 8 6 4 5 6 5 4 4 3 4 6 5 6 7 8 7 7 8 6 6 7 7 7 7 9
9 9 9 10 10 9 8 8 7 6 6 5 5 4 3 3 5 6 5 4 4 6 6 6 6 7 9 8 9 8 10 8 7 9 10 10 9 9 6 6 7 6 4 2 5 4 5 5 5 7 3 3 9 0 2 7 7 7 6 6 8 7 8
7 8 7 7 9 10 10 10 8 7 7 8 8 4 2 3 4 4 6 7 5 4 6 5 4 6 8 8 6 7 8 7 7 8 8 9 9 9 8 8 7 5 5 7 9 6 5 4 5 4 6 6 4 7 6 5 6 9 7 7 9 7 7
7 7 7 7 8 9 10 10 10 8 7 8 7 6 4 3 4 4 4 6 6 6 6 7 7 6 7 6 6 7 9 6 9 11 8 9 9 10 10 9 7 8 6 8 8 6 6 5 5 3 7 7 6 6 5 6 6 7 10 8 9 9 9
5 8 8 10 10 9 9 9 9 11 11 9 7 6 6 4 4 4 4 5 6 6 7 7 7 10 8 4 6 5 6 5 6 8 7 8 9 9 8 10 9 6 9 8 7 7 6 4 4 4 5 6 4 4 6 6 7 6 9 7 7 7 8
6 8 9 10 10 10 9 9 10 10 10 10 10 8 8 7 4 4 6 6 5 6 7 6 7 9 10 8 6 7 6 7 8 6 7 8 9 8 8 8 8 8 10 9 7 6 6 6 5 5 4 5 7 9 6 8 6 7 6 8 6 8 8
8 8 8 8 8 9 10 10 11 10 10 10 9 10 9 9 9 6 5 7 7 7 7 5 6 4 5 8 6 6 6 7 7 8 9 8 8 9 10 10 8 8 8 8 7 6 6 6 6 3 1 2 5 7 6 3 4 4 5 9 6 6 9
10 9 8 8 9 10 10 10 10 10 11 9 9 10 9 9 9 9 6 6 8 9 8 8 7 4 5 9 8 8 8 9 8 8 9 8 8 8 10 9 9 8 8 7 7 7 6 5 4 4 4 5 5 9 5 4 3 3 1 6 6 6 9
11 10 10 8 8 9 8 8 9 9 10 10 11 11 12 11 9 8 8 8 8 9 7 9 7 5 6 8 7 8 8 8 9 7 7 9 9 7 8 10 10 10 8 8 6 6 6 6 5 5 6 5 7 8 5 4 4 3 2 1 2 6 7
9 10 11 9 9 10 10 8 10 10 10 10 11 12 13 12 11 11 9 9 9 8 8 8 8 7 6 5 8 8 8 9 8 8 8 9 8 8 10 11 11 9 8 9 7 7 7 6 6 6 6 7 7 6 4 4 4 6 6 3 3 1 5
10 11 12 10 11 11 11 11 10 11 11 11 10 11 11 12 13 13 14 11 8 8 6 9 10 7 5 7 10 9 9 8 7 8 7 9 9 9 10 11 11 8 7 9 9 8 6 6 6 7 8 6 5 5 5 4 4 5 5 5 6 7 10
12 11 11 9 12 11 11 10 10 11 11 11 12 11 11 12 12 12 11 13 12 10 7 8 9 8 8 7 7 9 9 8 9 9 11 10 10 9 10 9 9 8 8 9 9 8 7 6 6 7 8 6 7 10 9 6 6 4 5 6 6 9 7
12 12 11 10 12 12 11 11 11 12 11 12 12 12 12 12 12 13 12 12 13 14 12 9 9 9 8 8 10 10 8 8 9 8 8 8 11 10 10 10 9 9 8 9 8 7 7 10 9 8 8 7 8 9 8 5 7 6 6 7 7 7 7
12 12 12 11 12 12 12 12 12 11 12 13 13 12 13 13 13 14 13 13 12 12 14 14 11 10 9 10 9 8 7 7 7 9 9 7 7 8 8 9 9 8 10 10 10 8 8 8 7 7 7 8 7 7 8 5 6 8 6 9 7 7 7
11 11 12 12 12 12 13 12 14 14 12 14 14 14 14 15 14 13 14 13 14 14 13 13 14 19 20 19 15 11 9 7 7 8 8 7 10 9 9 9 8 8 8 8 10 9 9 8 8 9 7 5 5 8 4 2 2 3 3 5 7 3 1
10 11 11 12 12 12 13 13 13 12 12 13 14 15 15 16 14 14 14 13 13 13 13 11 15 15 15 14 16 17 12 8 7 7 8 10 8 8 8 8 8 8 10 11 9 7 8 9 8 9 7 6 7 6 5 3 5 7 6 6 5 1 3
11 12 12 11 12 13 13 13 13 13 13 13 11 14 15 15 16 16 16 15 15 13 12 9 10 13 14 15 14 14 15 13 9 8 6 5 5 5 6 9 9 8 11 12 10 12 13 10 9 9 8 7 6 7 6 6 5 6 5 2 2 2 6
12 12 12 13 13 13 13 13 13 14 14 15 14 14 15 15 15 16 16 17 15 13 12 9 18 24 20 13 13 12 12 13 11 7 8 9 9 8 7 8 9 15 16 11 12 13 10 12 13 10 9 9 9 7 7 6 7 7 5 5 7 7 8
12 13 12 13 13 14 15 13 13 14 14 14 14 14 14 16 15 15 16 16 17 14 13 12 24 22 22 23 15 11 11 12 13 10 7 7 8 8 9 9 8 11 11 9 11 15 14 14 15 11 10 15 12 11 8 8 7 11 11 9 7 7 7
13 13 12 13 13 13 13 14 14 14 13 14 13 13 13 15 15 15 14 16 16 15 14 18 24 25 25 23 19 13 10 9 11 12 9 8 4 5 7 7 7 8 8 9 8 10 11 12 11 10 10 14 15 12 6 8 9 8 9 9 7 8 8
13 12 12 12 11 12 13 14 14 14 14 13 12 13 14 13 15 16 16 17 16 16 14 20 25 27 25 23 21 17 10 10 8 10 10 6 8 9 8 6 6 7 6 10 8 7 7 7 7 9 10 11 9 11 9 7 9 14 9 9 8 7 9
12 11 11 11 11 12 12 12 11 11 11 12 12 12 13 14 13 14 16 17 16 16 14 20 27 28 25 24 21 18 11 11 9 8 9 9 8 9 7 4 6 7 5 6 6 7 8 6 7 3 1 2 4 4 5 9 10 8 9 9 8 8 8
12 11 11 10 11 12 11 10 11 10 10 11 12 12 13 12 12 12 14 15 16 15 12 22 26 27 26 24 24 18 9 9 9 9 8 9 8 7 5 6 6 5 3 5 7 7 7 7 7 7 6 4 5 3 3 3 2 1 5 4 2 1 1
10 11 11 11 11 11 11 11 11 9 8 8 9 10 11 11 11 12 13 13 14 16 15 22 26 27 28 27 25 12 9 8 10 9 9 8 8 7 6 7 9 9 8 7 10 15 13 9 9 8 8 9 7 4 4 2 2 2 2 1 6 6 9
11 11 11 12 11 11 11 12 10 9 8 9 9 10 11 10 11 10 12 12 13 14 14 21 26 27 28 30 23 12 11 8 9 9 9 10 9 7 6 8 9 8 8 8 12 17 15 11 7 8 8 9 7 6 5 3 8 9 9 13 12 11 11
11 11 11 12 11 10 10 9 10 10 9 9 10 11 9 9 11 11 13 14 14 14 14 20 25 27 28 29 25 14 13 12 11 10 7 5 6 5 7 12 5 6 8 8 11 14 14 11 7 6 10 10 8 8 5 5 5 7 12 15 14 13 13
10 10 11 11 10 11 10 9 9 10 10 9 8 8 9 9 10 11 12 13 18 16 13 17 23 26 28 28 25 15 11 11 12 13 12 11 11 9 9 8 12 8 4 7 12 14 14 10 6 8 8 9 8 7 6 7 8 8 7 8 7 8 9
9 10 11 11 10 10 10 9 9 10 10 10 9 9 9 9 10 9 10 11 11 13 14 15 20 25 26 27 28 18 12 13 14 13 12 10 11 12 12 10 11 10 9 8 1 10 13 13 8 9 8 8 10 10 8 7 6 9 8 8 7 8 8
8 8 9 9 9 9 9 10 9 9 9 9 9 9 11 10 9 9 9 10 11 13 13 15 17 23 24 26 27 23 12 15 14 13 12 13 12 12 12 12 12 11 11 11 9 3 10 9 4 9 10 9 9 11 11 9 10 11 10 10 9 9 9
6 6 7 8 8 8 8 9 9 9 8 8 9 10 10 10 9 9 9 9 10 11 14 17 15 19 24 24 24 27 14 13 15 9 9 11 13 12 13 13 12 14 14 16 16 13 9 6 12 7 8 13 17 16 11 10 10 9 8 8 8 7 8
5 5 6 7 7 7 7 8 9 9 8 8 8 9 9 9 9 10 9 8 8 9 11 12 17 17 21 23 24 23 24 19 22 14 13 13 12 13 11 13 13 22 14 21 20 17 16 17 12 10 18 16 16 17 14 9 9 9 8 8 7 8 7
5 4 6 7 7 7 7 8 8 8 9 9 8 8 8 8 9 10 10 9 8 9 9 10 12 17 17 21 20 23 22 22 21 14 12 11 11 12 12 12 15 24 18 19 23 19 19 17 14 16 14 15 15 11 8 10 10 11 11 11 10 9 8
Wind_Direction
327 305 291 281 260 251 272 276 265 263 262 273 292 284 273 283 267 244 223 233 236 225 222 218 220 222 228 220 214 202 190 200 198 205 205 199 194 241 250 252 267 243 212 135 128 163 205 182 200 208 223 187 218 235 215 214 210 175 164 134 170 160 160
339 337 330 317 313 314 287 315 318 306 283 272 243 252 272 250 277 265 231 229 233 255 239 232 224 224 224 222 211 202 190 199 206 204 188 189 175 205 218 221 238 243 201 197 185 173 189 188 185 181 194 187 205 241 217 207 197 177 171 165 173 165 155
342 338 330 322 316 318 306 21 343 303 305 297 280 281 285 317 340 306 289 247 233 238 239 243 235 232 230 241 228 212 196 193 191 196 201 184 188 191 203 224 208 204 234 206 195 180 184 197 172 182 182 179 200 217 208 194 204 174 184 164 163 161 165
346 335 329 325 321 311 315 320 219 244 275 291 315 338 343 334 316 283 275 259 222 227 233 233 233 232 230 227 229 214 207 201 190 185 190 189 185 198 207 223 213 204 197 205 190 188 182 167 191 235 187 200 196 193 196 190 190 189 188 181 167 168 177
345 337 333 328 325 319 325 318 316 308 313 321 309 292 287 297 296 282 283 291 251 237 241 236 234 232 231 233 230 225 218 201 184 185 195 202 201 209 223 228 229 217 211 207 209 192 189 184 184 181 193 195 259 216 172 176 194 184 196 182 188 167 188
354 347 337 335 339 333 329 327 331 325 318 308 310 312 332 316 280 277 250 268 271 246 232 228 234 234 237 236 230 219 212 200 189 191 198 210 203 202 211 209 225 237 228 214 199 194 189 162 175 171 204 177 220 209 169 165 187 190 200 182 193 180 167
349 341 342 342 340 338 339 331 326 317 311 303 305 306 335 329 304 296 269 251 261 269 257 240 231 235 237 227 227 228 218 204 191 199 202 206 211 211 191 201 220 224 235 326 266 187 184 183 188 199 168 199 219 233 192 172 180 178 202 198 192 191 157
344 341 337 337 337 340 339 334 329 321 315 314 314 308 316 282 285 302 315 311 300 291 286 277 258 242 236 226 221 233 231 216 201 207 212 200 206 206 202 210 210 212 212 199 222 211 191 189 176 158 157 206 211 179 201 182 175 200 188 198 185 187 173
349 340 337 340 341 341 339 333 333 332 321 316 319 315 299 312 315 302 300 300 299 289 280 271 277 272 251 229 224 225 228 214 208 205 208 208 211 210 208 212 207 215 219 213 213 196 195 188 186 176 172 206 208 188 185 178 179 203 205 180 181 184 173
360 348 344 345 345 342 337 333 333 335 334 333 322 309 317 304 306 296 288 286 291 298 301 290 275 263 253 216 221 227 240 231 218 204 204 215 214 211 209 208 211 193 223 232 212 196 192 186 187 184 183 193 223 207 184 192 190 192 196 191 176 181 177
1 6 357 350 348 340 339 340 338 335 336 332 333 328 324 314 294 297 299 299 300 294 281 288 296 285 266 248 244 241 236 230 222 213 220 213 213 212 211 212 209 203 208 218 224 189 188 198 197 213 196 206 209 223 212 189 196 188 182 193 196 169 166
12 5 2 350 344 343 343 342 338 331 326 330 326 330 330 327 318 300 291 292 289 278 278 283 267 247 303 284 256 266 258 257 230 225 227 217 216 213 210 208 207 213 217 209 210 196 195 189 194 187 317 343 280 258 203 233 180 196 166 180 207 148 162
5 0 352 359 352 348 344 339 336 334 331 328 329 326 325 324 326 317 304 298 292 292 297 288 277 275 261 246 233 233 229 227 225 215 222 227 223 221 216 211 209 213 214 218 209 197 197 189 124 124 185 201 241 255 183 192 164 193 347 162 164 150 160
7 350 357 5 355 346 341 344 340 333 334 338 339 334 331 329 323 321 312 309 297 291 308 306 292 255 255 278 267 238 228 222 233 234 224 226 225 222 228 222 215 212 205 208 207 201 193 189 154 180 196 205 229 234 187 162 174 140 289 228 141 168 174
353 360 356 358 358 352 345 351 348 346 343 341 337 336 336 336 330 327 325 311 312 316 302 290 288 281 270 268 272 251 233 227 221 230 225 240 229 216 226 224 218 210 205 209 214 208 196 183 176 175 203 210 236 227 198 179 169 160 196 192 176 123 116
4 3 1 355 0 357 356 351 351 349 347 345 344 342 338 335 339 341 340 326 306 307 294 296 287 268 262 263 259 255 249 233 234 241 235 229 233 226 224 230 224 209 205 212 211 212 190 183 182 194 206 209 239 262 224 189 146 178 174 184 180 192 173
3 6 360 359 358 0 356 353 356 353 353 349 346 341 340 344 341 342 338 340 330 317 307 291 290 294 282 254 264 266 257 248 238 222 219 219 232 234 227 227 233 218 206 212 210 209 195 184 191 201 213 206 204 229 228 175 175 163 176 188 196 191 175
1 4 1 358 357 0 357 1 1 354 356 354 351 348 348 345 342 343 342 339 340 334 325 307 297 291 285 277 259 249 243 247 251 247 234 221 229 231 222 231 232 227 218 218 214 207 193 192 197 198 198 205 221 227 222 174 180 179 180 201 201 199 169
3 2 356 2 3 360 359 5 3 1 357 358 354 353 351 348 346 344 342 341 338 342 337 331 319 310 301 285 267 260 255 255 258 252 237 216 224 227 236 234 227 219 222 218 218 212 210 205 195 204 203 196 202 226 222 184 176 196 200 200 206 188 179
5 3 360 4 2 0 4 7 4 4 1 360 360 354 354 351 348 346 344 344 346 343 341 329 359 7 357 343 321 292 268 252 252 258 255 233 219 218 224 230 233 228 225 227 225 214 207 205 195 202 208 209 214 209 204 153 102 64 2 339 311 266 114
2 5 5 3 3 4 5 5 8 5 3 2 1 359 355 355 349 348 347 344 346 344 339 358 20 5 360 352 346 332 308 263 260 267 250 231 215 209 212 222 227 233 233 229 224 207 194 200 198 202 197 192 210 186 164 146 135 180 192 184 187 113 45
2 9 2 5 8 7 6 6 6 5 5 4 3 1 358 356 353 350 349 347 347 350 345 9 24 9 353 349 340 334 328 310 275 251 265 293 263 240 228 234 239 223 233 234 214 203 201 191 190 199 189 172 192 180 166 170 151 156 191 180 154 132 188
5 6 5 3 8 8 6 7 5 4 5 5 5 1 1 358 356 354 349 350 348 350 351 352 3 357 354 348 336 329 324 317 300 270 246 236 238 240 234 216 215 237 239 206 196 211 211 202 196 199 181 174 189 181 173 166 161 154 165 198 188 186 192
5 9 4 4 5 5 6 5 6 6 3 4 4 4 1 359 359 357 354 351 351 349 348 356 357 351 345 342 339 327 320 316 305 286 273 263 238 223 232 232 230 227 234 197 213 227 209 203 194 179 172 177 184 183 173 174 162 163 186 196 192 177 187
10 8 7 7 6 6 7 6 6 4 2 2 5 3 3 1 1 359 357 355 352 352 347 1 355 346 340 338 334 325 305 298 305 299 271 252 239 242 235 223 234 230 197 177 190 219 200 189 183 183 184 178 190 192 182 180 164 146 173 182 183 184 185
11 7 7 6 6 13 9 10 8 3 360 1 4 7 1 359 3 1 1 357 355 353 348 1 351 343 338 334 330 326 309 295 287 292 294 249 245 243 233 224 239 230 208 171 179 205 217 183 182 187 166 156 153 146 125 91 132 167 179 175 179 186 193
12 10 8 8 9 10 12 13 11 6 358 359 5 7 0 360 4 4 2 360 355 353 352 0 348 343 339 334 329 324 294 292 279 276 291 288 255 232 224 174 201 203 191 169 173 194 200 170 157 153 187 180 126 110 109 115 105 122 155 174 181 187 197
13 10 9 12 14 12 10 12 14 12 6 4 2 2 359 356 2 8 5 1 359 356 358 356 349 346 343 338 332 321 289 291 293 286 288 285 278 250 194 201 227 220 174 161 187 204 187 173 165 167 143 80 62 61 50 13 44 137 172 194 177 85 42
10 13 10 12 17 16 10 12 11 8 10 7 7 3 359 357 359 10 9 6 1 359 357 357 351 350 347 344 336 318 303 301 305 301 288 282 269 243 227 216 212 211 212 183 187 201 197 176 177 171 156 134 130 95 62 3 304 288 323 322 113 162 218
11 11 9 11 15 22 15 10 8 0 8 15 14 14 1 359 358 5 8 6 6 3 4 1 356 353 352 351 347 336 319 298 306 303 298 283 281 269 234 206 194 196 196 205 191 193 200 183 184 172 150 131 135 122 118 110 50 61 76 71 75 99 96
12 10 12 10 7 19 23 16 9 359 360 13 18 16 3 1 3 7 7 8 10 2 3 1 360 358 357 357 355 348 347 338 329 328 312 23 33 26 22 17 336 188 193 205 188 184 191 180 178 144 130 144 134 127 122 110 89 70 85 85 78 69 66
13 13 13 9 11 15 20 19 13 4 360 8 21 17 10 5 10 12 13 8 8 5 0 1 3 1 2 3 3 358 356 356 358 8 5 4 6 6 358 7 15 8 309 203 195 196 182 162 160 150 153 135 134 127 135 134 123 119 107 99 91 81 68
15 18 16 11 11 18 12 15 20 14 7 5 10 15 12 10 16 15 13 8 7 4 3 3 2 3 5 6 7 5 3 11 9 5 9 8 3 4 355 348 351 9 41 19 174 194 184 169 154 163 162 151 143 137 151 139 122 114 108 97 86 79 80
22 23 17 14 16 19 17 12 7 20 14 8 7 14 13 11 16 13 11 8 5 2 3 3 0 4 8 8 8 10 3 11 6 12 11 13 10 4 356 349 340 345 51 55 41 94 152 153 204 174 169 162 146 139 137 124 123 113 100 95 90 83 75
30 25 16 14 16 22 22 20 9 8 15 12 11 13 13 13 14 12 13 11 8 6 5 5 5 6 10 10 9 10 11 6 3 0 7 19 14 9 360 345 355 334 42 54 58 44 54 120 141 133 122 122 124 127 121 119 118 117 112 104 105 100 91
38 31 20 8 13 20 24 22 16 6 8 10 15 15 17 9 13 13 12 10 8 2 0 360 7 6 8 10 11 11 10 11 6 12 21 23 14 11 2 4 355 337 33 61 52 48 56 63 59 104 116 112 114 115 116 117 120 116 107 99 84 73 72
60 44 28 7 14 13 23 28 17 7 5 7 10 14 16 13 13 12 8 5 5 4 357 358 356 2 2 6 9 10 9 9 12 9 13 18 13 5 3 12 4 355 357 51 59 45 56 62 68 56 64 87 84 80 89 93 82 87 91 90 86 81 76